Location: Wapato
(46.4478°N, 120.4212°W)
Time: 14:59:13
(UTC+00:00)

Vanguard 2 Rocket - Pass Details

Date: 17 May 2026
Orbit: 553 x 3286 km, 32.9° (Epoch: 7 June)

Event Time Altitude Azimuth Distance (km) Brightness Sun altitude
Rises 21:51:18 0° 265° (W) 6,022 11.5 54.5°
Reaches altitude 10° 21:55:00 10° 260° (W) 5,314 11.5 54.0°
Maximum altitude 22:10:51 48° 194° (SSW) 3,853 11.4 51.8°
Drops below altitude 10° 22:29:10 10° 129° (SE) 6,046 11.0 49.1°
Sets 22:33:46 0° 124° (ESE) 6,874 11.2 48.4°
